Location: Newark
(49.8969°N, 3.3422°E)
Time: 13:43:57
(UTC+00:00)

Altair - All Passes

Search period start: 19 January 2020 00:00
Search period end: 29 January 2020 00:00
Orbit: 1502 x 1682 km, 47.2° (Epoch: 18 January)

Date Brightness Start Highest point End Pass type
(mag) Time Alt. Az. Time Alt. Az. Time Alt. Az.
19 Jan - 08:19:22 10° S 08:26:36 23° SE 08:33:51 10° E daylight
19 Jan - 10:20:04 10° SW 10:29:48 54° SSE 10:39:30 10° ENE daylight
19 Jan - 12:24:01 10° WSW 12:34:11 77° S 12:44:10 10° E daylight
19 Jan - 14:28:47 10° W 14:38:47 66° SSW 14:48:29 10° ESE daylight
19 Jan - 16:33:53 10° W 16:42:26 34° SW 16:50:45 10° SSE daylight
20 Jan - 07:54:45 10° S 08:01:34 21° SE 08:08:25 10° E daylight
20 Jan - 09:55:01 10° SW 10:04:39 52° SSE 10:14:18 10° ENE daylight
20 Jan - 11:58:49 10° WSW 12:08:59 77° S 12:19:00 10° E daylight
20 Jan - 14:03:35 10° W 14:13:37 68° SSW 14:23:23 10° ESE daylight
20 Jan - 16:08:36 10° WNW 16:17:22 36° SW 16:25:54 10° SSE daylight
21 Jan - 07:30:11 10° SSE 07:36:33 19° SE 07:42:56 10° E daylight
21 Jan - 09:29:58 10° SW 09:39:32 49° SSE 09:49:05 10° ENE daylight
21 Jan - 11:33:38 10° WSW 11:43:47 76° S 11:53:49 10° E daylight
21 Jan - 13:38:22 10° W 13:48:26 70° SSW 13:58:16 10° ESE daylight
21 Jan - 15:43:19 10° WNW 15:52:18 38° SW 16:01:00 10° SSE daylight
21 Jan - 17:52:09 10° WSW 17:54:41 11° WSW 17:57:13 10° SW visible
22 Jan - 07:05:42 10° SSE 07:11:32 17° SE 07:17:24 10° E daylight
22 Jan - 09:04:57 10° SW 09:14:24 47° SSE 09:23:52 10° ENE daylight
22 Jan - 11:08:27 10° WSW 11:18:35 75° S 11:28:37 10° E daylight
22 Jan - 13:13:08 10° W 13:23:15 72° SSW 13:33:07 10° ESE daylight
22 Jan - 15:18:04 10° WNW 15:27:12 41° SW 15:36:06 10° SSE daylight
22 Jan - 17:25:53 10° W 17:29:43 13° WSW 17:33:31 10° SW visible
23 Jan - 06:41:19 10° SSE 06:46:32 16° SE 06:51:46 10° E visible
23 Jan - 08:39:57 10° SSW 08:49:16 44° SE 08:58:39 10° ENE daylight
23 Jan - 10:43:16 10° WSW 10:53:23 74° SSE 11:03:26 10° E daylight
23 Jan - 12:47:56 10° W 12:58:04 73° SSW 13:07:59 10° ESE daylight
23 Jan - 14:52:49 10° WNW 15:02:06 43° SW 15:11:09 10° SSE daylight
23 Jan - 17:00:00 10° W 17:04:44 15° WSW 17:09:26 10° SSW visible
24 Jan - 06:17:06 10° SSE 06:21:32 14° ESE 06:25:59 10° E visible
24 Jan - 08:15:00 10° SSW 08:24:10 42° SE 08:33:25 10° ENE daylight
24 Jan - 10:18:06 10° WSW 10:28:12 72° SSE 10:38:15 10° E daylight
24 Jan - 12:22:43 10° W 12:32:52 74° S 12:42:50 10° ESE daylight
24 Jan - 14:27:34 10° WNW 14:37:00 46° SW 14:46:11 10° SE daylight
24 Jan - 16:34:17 10° W 16:39:45 16° SW 16:45:09 10° SSW daylight
25 Jan - 05:53:09 10° SE 05:56:33 12° ESE 05:59:58 10° E visible
25 Jan - 07:50:02 10° SSW 07:59:03 40° SE 08:08:10 10° ENE daylight
25 Jan - 09:52:56 10° WSW 10:03:00 71° SSE 10:13:03 10° E daylight
25 Jan - 11:57:30 10° W 12:07:40 75° S 12:17:41 10° ESE daylight
25 Jan - 14:02:20 10° WNW 14:11:53 48° SSW 14:21:12 10° SE daylight
25 Jan - 16:08:41 10° W 16:14:45 18° SW 16:20:44 10° SSW daylight
26 Jan - 05:29:51 10° SE 05:31:35 11° ESE 05:33:19 10° ESE visible
26 Jan - 07:25:08 10° SSW 07:33:58 37° SE 07:42:55 10° ENE daylight
26 Jan - 09:27:48 10° WSW 09:37:49 69° SSE 09:47:52 10° E daylight
26 Jan - 11:32:18 10° W 11:42:29 76° S 11:52:31 10° ESE daylight
26 Jan - 13:37:06 10° WNW 13:46:46 51° SSW 13:56:12 10° SE daylight
26 Jan - 15:43:10 10° W 15:49:45 20° SW 15:56:14 10° S daylight
27 Jan - 07:00:14 10° SSW 07:08:53 35° SE 07:17:39 10° ENE daylight
27 Jan - 09:02:40 10° WSW 09:12:37 67° SSE 09:22:40 10° E daylight
27 Jan - 11:07:06 10° W 11:17:16 77° S 11:27:21 10° ESE daylight
27 Jan - 13:11:54 10° WNW 13:21:37 53° SSW 13:31:10 10° SE daylight
27 Jan - 15:17:42 10° W 15:24:44 22° SW 15:31:38 10° S daylight
28 Jan - 06:35:22 10° SSW 06:43:48 33° SE 06:52:23 10° E visible
28 Jan - 08:37:32 10° WSW 08:47:27 65° SSE 08:57:28 10° E daylight
28 Jan - 10:41:54 10° W 10:52:04 78° S 11:02:10 10° E daylight
28 Jan - 12:46:41 10° W 12:56:29 56° SSW 13:06:07 10° SE daylight
28 Jan - 14:52:17 10° W 14:59:42 24° SW 15:06:59 10° S daylight
